STARLINK-5365 (55498 NORAD) Tracking and Keplerian Element Data

This shows tracking and keplerian element data for the satellite.

Feedback or suggestion? Click here.




ElementValue
Catalog55498
NameSTARLINK-5365
Epoch Orbit823
Epoch Day85.25001157
Epoch Year2023
RAAN83.929
Inclination43.0009
Eccentricity0.0001412
Argument of Perigee267.4283
Mean Anonmoly73.6197
Mean Motion15.04162335
Decay Rate-0.01219486
L11 55498U 23015BB 23085.25001157 -.01219486 00000+0 -93261-1 0 9995
L22 55498 43.0009 83.9290 0001412 267.4283 73.6197 15.04162335 8236



Live tracking and technical data element details for STARLINK-5365 (NORAD 55498). STARLINK-5365 can be tracked NOW for your location showing map with azimuth and elevation plus other details from your city location.







IsCatalogInMostPopularTable: catalog: 55498, numindb: -1

Insert: records affected: 1


GetName: 55498 STARLINK-5365

Hit Count: inserted at: Tue, 28 Mar 2023 03:06:07 GMT